Regional Weather Roundup
Issued by NWS

Home | Current Version | Previous Version | Graphics & Text | Print | Product List | Glossary On
Versions: 1 2 3 4 5 6 7 8 9 10 11 12 13 14 15 16 17 18 19 20 21 22 23 24 25 26 27 28 29 30 31 32 33 34 35 36 37 38 39 40 41 42 43 44 45 46 47 48 49 50
000
ASUS43 KLMK 211610
RWRKY
KENTUCKY REGIONAL WEATHER ROUNDUP
NATIONAL WEATHER SERVICE LOUISVILLE KY
1200 PM EDT SAT OCT 21 2017

NOTE "FAIR" INDICATES FEW OR NO CLOUDS BELOW 12,000 FEET
WITH NO SIGNIFICANT WEATHER AND/OR OBSTRUCTIONS TO VISIBILITY.

KYZ001>023-026-027-061>063-070>075-211700-
WESTERN AND SOUTH CENTRAL KENTUCKY

CITY           SKY/WX    TMP DP  RH WIND       PRES   REMARKS
PADUCAH        MOSUNNY   71  50  47 S12G17    30.15F
HENDERSON      MOSUNNY   70  51  51 S12       30.19F
OWENSBORO      PTSUNNY   67  52  58 S10       30.21F
HOPKINSVILLE   MOSUNNY   68  50  52 SE7       30.21S
BOWLING GREEN  MOSUNNY   70  53  54 S9        30.24F
GLASGOW        MOSUNNY   71  49  45 S7        30.26S
$$

KYZ024-025-028>034-038-045-046-053-211700-
NORTH CENTRAL KENTUCKY

CITY           SKY/WX    TMP DP  RH WIND       PRES   REMARKS
LOUISVILLE/SDF PTSUNNY   69  51  52 S9        30.24S
LOUISVILLE/LOU CLOUDY    67  53  61 S12       30.25S
FORT KNOX      CLOUDY    70  50  49 S12       30.23S
$$

KYZ035>037-039>044-047>052-055>060-089>105-211700-
NORTHEAST KENTUCKY

CITY           SKY/WX    TMP DP  RH WIND       PRES   REMARKS
LEXINGTON      MOSUNNY   71  51  49 SW13      30.28S
COVINGTON      PTSUNNY   68  52  56 SW6       30.25S
FRANKFORT      MOSUNNY   71  51  49 S6        30.26S
$$

KYZ054-064>069-076>088-106>120-211700-
SOUTHEAST KENTUCKY

CITY           SKY/WX    TMP DP  RH WIND       PRES   REMARKS
JACKSON        MOSUNNY   67  52  58 VRB3      30.32R
LONDON         CLOUDY    66  52  60 CALM      30.31S
SOMERSET       MOSUNNY   64  50  59 S6        30.31F
MIDDLESBORO    CLOUDY    59  53  81 CALM      30.33F
MONTICELLO     MOSUNNY   71  51  49 VRB5      30.31S
$$





USA.gov is the U.S. government's official web portal to all federal, state and local government web resources and services.